EW8502 Weather Reports


time (UTC)temp
C
wind
direction
speed
KPH
gust
KPH
rain 1hr
cm
rain 24hr
cm
rain mn
cm
humidity
%
barometer
mb
20260506123005 15 182 0.0 6.4 0.00 0.00 0.00 86 1008.7
20260506121501 15 173 0.0 19.3 0.00 0.00 0.00 86 1008.9
20260506120100 15 173 0.0 6.4 0.00 0.00 0.00 87 1008.7
20260506114604 14 178 0.0 8.0 0.00 0.00 0.00 88 1008.7
20260506113101 14 188 1.6 16.1 0.00 0.00 0.00 89 1008.6
20260506111605 13 183 0.0 16.1 0.00 0.00 0.00 90 1008.8
20260506110054 13 177 0.0 8.0 0.00 0.00 0.00 90 1008.8
20260506104558 13 180 0.0 11.3 0.00 0.00 0.00 90 1008.6
20260506103059 13 165 0.0 14.5 0.00 0.00 0.00 90 1008.6
20260506101552 13 182 0.0 1.6 0.00 0.00 0.00 90 1008.6
20260506100053 13 153 0.0 12.9 0.00 0.00 0.00 90 1008.6
20260506094548 13 167 0.0 11.3 0.00 0.00 0.00 89 1008.7
20260506093046 13 175 0.0 22.5 0.00 0.00 0.00 89 1008.7
20260506091547 13 171 0.0 1.6 0.00 0.00 0.00 89 1008.7
20260506090045 13 161 0.0 1.6 0.00 0.00 0.00 89 1008.8
20260506084544 13 190 0.0 3.2 0.00 0.00 0.00 88 1008.9
20260506083040 13 165 0.0 9.7 0.00 0.00 0.00 88 1009.0
20260506081540 13 174 0.0 17.7 0.00 0.00 0.00 87 1009.0
20260506073038 13 178 0.0 4.8 0.00 0.00 0.00 86 1009.2
20260506071537 13 185 0.0 8.0 0.00 0.00 0.00 86 1009.3
20260506061532 14 117 0.0 14.5 0.00 0.00 0.00 84 1009.2
20260506044522 15 198 0.0 17.7 0.00 0.00 0.00 81 1009.4
20260506043021 15 178 1.6 12.9 0.00 0.00 0.00 81 1009.5
20260506041519 15 184 0.0 8.0 0.00 0.00 0.00 80 1009.6
20260506040033 15 174 0.0 4.8 0.00 0.00 0.00 80 1009.4
20260506034520 15 180 0.0 9.7 0.00 0.00 0.00 80 1009.4
20260506033016 15 175 0.0 3.2 0.00 0.00 0.00 80 1009.4
20260506031516 15 170 0.0 8.0 0.00 0.00 0.00 79 1009.4
20260506030015 16 163 0.0 22.5 0.00 0.00 0.00 79 1009.7
20260506024515 16 159 0.0 8.0 0.00 0.00 0.00 79 1009.6
20260506023023 16 140 0.0 9.7 0.00 0.00 0.00 78 1009.5
20260506021528 16 302 0.0 16.1 0.00 0.00 0.00 77 1009.6
20260506020013 16 188 0.0 19.3 0.00 0.00 0.00 75 1009.6
20260506014513 16 201 0.0 22.5 0.00 0.00 0.00 73 1009.5
20260506013036 17 141 0.0 17.7 0.00 0.00 0.00 71 1009.1
20260506011535 17 221 1.6 16.1 0.00 0.00 0.00 71 1008.9
20260506010046 17 173 0.0 6.4 0.00 0.00 0.00 71 1008.6
20260506004534 17 155 0.0 11.3 0.00 0.00 0.00 71 1008.6
20260506003033 17 165 0.0 19.3 0.00 0.00 0.00 71 1008.5
20260506001532 17 172 0.0 8.0 0.00 0.00 0.00 72 1008.4
20260506000032 17 180 0.0 16.1 0.00 0.00 0.00 71 1008.4
20260505234554 17 196 0.0 16.1 0.00 0.00 0.00 70 1008.1
20260505233037 17 190 0.0 20.9 0.00 0.00 0.00 69 1007.9
20260505231532 17 312 0.0 16.1 0.00 0.00 0.00 69 1007.6
20260505230030 17 191 0.0 14.5 0.00 0.00 0.00 69 1007.4
20260505224533 17 180 1.6 12.9 0.00 0.00 0.00 69 1007.5
20260505223029 17 165 1.6 19.3 0.00 0.00 0.00 68 1007.3
20260505221530 18 186 0.0 14.5 0.00 0.00 0.00 68 1007.2
20260505220027 18 173 0.0 6.4 0.00 0.00 0.00 67 1007.4
20260505214536 18 259 0.0 11.3 0.00 0.00 0.00 65 1007.1
20260505213058 18 184 0.0 16.1 0.00 0.00 0.00 66 1006.9
20260505211547 19 167 0.0 9.7 0.00 0.00 0.00 64 1006.8
20260505210055 19 182 0.0 12.9 0.00 0.00 0.00 65 1006.7
20260505204555 19 142 0.0 12.9 0.00 0.00 0.00 66 1006.8
20260505203051 19 190 0.0 17.7 0.00 0.00 0.00 66 1006.9
20260505201542 20 177 0.0 11.3 0.00 0.00 0.00 65 1007.1
20260505200057 20 165 0.0 3.2 0.00 0.00 0.00 65 1007.1
20260505194546 20 192 0.0 3.2 0.00 0.00 0.00 65 1007.4
20260505193040 19 273 0.0 4.8 0.00 0.00 0.00 66 1007.6
20260505191537 19 281 0.0 9.7 0.00 0.00 0.00 67 1007.7
20260505190038 19 161 1.6 19.3 0.00 0.00 0.00 66 1008.1
20260505184535 19 199 0.0 14.5 0.00 0.00 0.00 66 1008.2
20260505183036 20 163 0.0 3.2 0.00 0.00 0.00 68 1008.2
20260505181636 19 142 1.6 14.5 0.00 0.00 0.00 67 1008.3
20260505180054 20 180 3.2 27.4 0.00 0.00 0.00 66 1008.5
20260505174549 20 151 0.0 11.3 0.00 0.00 0.00 67 1008.5
20260505173033 20 155 1.6 14.5 0.00 0.00 0.00 67 1008.6
20260505171529 20 163 0.0 9.7 0.00 0.00 0.00 65 1008.9
20260505170028 21 178 0.0 8.0 0.00 0.00 0.00 65 1008.7
20260505164526 20 248 0.0 12.9 0.00 0.00 0.00 64 1008.8
20260505163025 20 159 1.6 11.3 0.00 0.00 0.00 64 1009.1
20260505161524 21 165 0.0 9.7 0.00 0.00 0.00 64 1009.0
20260505153024 20 160 0.0 3.2 0.00 0.00 0.00 65 1009.4
20260505151520 19 165 0.0 9.7 0.00 0.00 0.00 67 1009.6
20260505140109 17 178 0.0 3.2 0.00 0.00 0.00 74 1009.5
20260505124507 15 180 0.0 1.6 0.00 0.00 0.00 84 1009.2